Location: Tyumen
(57.1527°N, 65.5323°E)
Time: 23:32:02
(UTC+05:00)

ISS - Visible Passes

Search period start: 16 May 2021 00:00
Search period end: 26 May 2021 00:00
Orbit: 417 x 422 km, 51.6° (Epoch: 15 May)

Date Brightness Start Highest point End Pass type
(mag) Time Alt. Az. Time Alt. Az. Time Alt. Az.
16 May -3.0 01:12:41 10° WSW 01:15:41 30° S 01:18:42 10° SE visible
16 May -2.1 02:49:43 10° WSW 02:51:50 16° SSW 02:53:57 10° S visible
16 May -2.7 22:49:15 10° SW 22:52:04 25° SSE 22:54:54 10° ESE visible
17 May -3.0 00:25:19 10° WSW 00:28:22 32° S 00:31:25 10° ESE visible
17 May -2.4 02:02:04 10° WSW 02:04:35 19° SSW 02:07:05 10° SSE visible
17 May -2.4 22:02:09 10° SSW 22:04:46 21° SSE 22:07:24 10° ESE visible
17 May -3.0 23:37:58 10° WSW 23:41:01 32° S 23:44:04 10° ESE visible
18 May -2.6 01:14:32 10° WSW 01:17:07 23° SSW 01:17:07 23° SSW visible
18 May -3.0 22:50:40 10° WSW 22:53:40 31° S 22:56:42 10° ESE visible
19 May -2.8 00:27:04 10° WSW 00:29:59 27° SSW 00:30:38 25° S visible
19 May -2.8 22:03:23 10° SW 22:06:20 28° SSE 22:09:18 10° ESE visible
19 May -2.9 23:39:39 10° WSW 23:42:39 30° S 23:44:25 18° SE visible
20 May -1.6 01:16:41 10° WSW 01:17:20 13° WSW 01:17:20 13° WSW visible
20 May -2.9 22:52:15 10° WSW 22:55:18 31° S 22:58:18 10° ESE visible
21 May -2.2 00:29:01 10° WSW 00:31:14 19° SSW 00:31:14 19° SSW visible
21 May -2.9 22:04:54 10° WSW 22:07:56 32° S 22:11:00 10° ESE visible
21 May -2.5 23:41:28 10° WSW 23:44:13 23° SSW 23:45:10 20° S visible
22 May -2.6 22:53:59 10° WSW 22:56:53 27° SSW 22:59:09 14° SE visible
23 May -1.4 00:31:33 10° WSW 00:32:05 11° SW 00:32:05 11° SW visible
23 May -2.7 22:06:33 10° WSW 22:09:32 30° S 22:12:32 10° SE visible
23 May -1.9 23:43:35 10° WSW 23:45:40 16° SSW 23:46:05 15° SSW visible
24 May -2.1 22:55:53 10° WSW 22:58:23 19° SSW 23:00:05 14° SSE visible
25 May -2.3 22:08:20 10° WSW 22:11:04 23° SSW 22:13:49 10° SE visible
